Location: ????????
(55.5142°N, 38.4323°E)
Time: 00:08:26
(UTC+00:00)

Cosmos 990 Rocket - Pass Details

Date: 13 September 2025
Orbit: 742 x 763 km, 74.0° (Epoch: 10 December)

Event Time Altitude Azimuth Distance (km) Brightness Sun altitude
Rises 16:36:04 0° 332° (NNW) 3,221 8.0 -7.4°
Reaches altitude 10° 16:38:31 10° 337° (NNW) 2,289 7.1 -7.7°
Maximum altitude 16:43:36 54° 55° (NE) 913 4.2 -8.4°
Drops below altitude 10° 16:48:37 10° 133° (SE) 2,262 5.9 -9.1°
Enters shadow 16:48:50 - 134° (SE) 2,340 5.9 -9.1°
